TimeEST,TemperatureF,Dew PointF,Humidity,Sea Level PressureIn,VisibilityMPH,Wind Direction,Wind SpeedMPH,Gust SpeedMPH,PrecipitationIn,Events,Conditions,WindDirDegrees,DateUTC
12:53 AM,39.9,35.1,83,29.87,10.0,NNW,8.1,-,N/A,,Clear,330,2012-11-07 05:53:00
1:53 AM,39.9,35.1,83,29.86,10.0,NNW,8.1,-,N/A,,Mostly Cloudy,330,2012-11-07 06:53:00
2:19 AM,39.2,33.8,81,29.84,10.0,NNW,9.2,-,N/A,,Overcast,340,2012-11-07 07:19:00
2:53 AM,41.0,34.0,76,29.84,10.0,NNW,10.4,-,N/A,,Overcast,340,2012-11-07 07:53:00
3:53 AM,39.9,34.0,79,29.84,10.0,NW,9.2,-,N/A,,Overcast,310,2012-11-07 08:53:00
4:53 AM,39.9,34.0,79,29.85,10.0,NW,6.9,-,N/A,,Overcast,320,2012-11-07 09:53:00
5:53 AM,39.0,34.0,82,29.85,10.0,NW,8.1,-,N/A,,Overcast,310,2012-11-07 10:53:00
6:53 AM,39.0,34.0,82,29.86,10.0,NW,5.8,-,N/A,,Mostly Cloudy,320,2012-11-07 11:53:00
7:53 AM,42.1,36.0,79,29.87,10.0,NW,6.9,-,N/A,,Overcast,320,2012-11-07 12:53:00
8:01 AM,42.8,37.4,81,29.87,10.0,NW,8.1,-,N/A,,Overcast,320,2012-11-07 13:01:00
8:40 AM,44.6,37.4,76,29.87,10.0,NNW,10.4,-,N/A,,Overcast,330,2012-11-07 13:40:00
8:53 AM,45.0,37.9,76,29.87,10.0,NNW,10.4,-,N/A,,Overcast,340,2012-11-07 13:53:00
9:53 AM,46.9,39.9,77,29.87,10.0,North,11.5,-,N/A,,Overcast,350,2012-11-07 14:53:00
10:03 AM,48.2,39.2,71,29.87,10.0,North,6.9,-,N/A,,Overcast,350,2012-11-07 15:03:00
10:53 AM,50.0,41.0,71,29.86,10.0,North,10.4,-,N/A,,Overcast,350,2012-11-07 15:53:00
11:53 AM,52.0,41.0,66,29.84,10.0,NNW,11.5,-,N/A,,Overcast,340,2012-11-07 16:53:00
12:53 PM,53.1,41.0,64,29.82,10.0,NNW,8.1,-,N/A,,Overcast,330,2012-11-07 17:53:00
1:53 PM,54.0,39.0,57,29.82,10.0,NNW,11.5,-,N/A,,Overcast,340,2012-11-07 18:53:00
2:53 PM,53.1,39.0,59,29.81,10.0,NNW,9.2,-,N/A,,Mostly Cloudy,340,2012-11-07 19:53:00
3:53 PM,52.0,36.0,54,29.83,10.0,NNW,10.4,-,N/A,,Overcast,330,2012-11-07 20:53:00
4:53 PM,50.0,36.0,59,29.84,10.0,NNW,8.1,-,N/A,,Mostly Cloudy,340,2012-11-07 21:53:00
5:53 PM,48.0,37.0,66,29.87,10.0,NNW,4.6,-,N/A,,Mostly Cloudy,330,2012-11-07 22:53:00
6:53 PM,46.0,37.0,71,29.89,10.0,NNW,5.8,-,N/A,,Clear,340,2012-11-07 23:53:00
7:53 PM,43.0,37.0,80,29.90,10.0,North,5.8,-,N/A,,Clear,10,2012-11-08 00:53:00
8:53 PM,39.9,36.0,86,29.91,10.0,North,4.6,-,N/A,,Clear,360,2012-11-08 01:53:00
9:53 PM,39.9,35.1,83,29.92,10.0,Calm,Calm,-,N/A,,Clear,0,2012-11-08 02:53:00
10:53 PM,39.0,35.1,86,29.93,10.0,NNW,3.5,-,N/A,,Clear,340,2012-11-08 03:53:00
11:53 PM,41.0,35.1,79,29.93,10.0,NW,3.5,-,N/A,,Mostly Cloudy,320,2012-11-08 04:53:00